Weather History for San Carlos, CA

Change the Weather History Date:

Sunday, May 4, 2014

  Actual Average Record
Temperature  
Mean Temperature 60 °F -  
Max Temperature 66 °F 72 °F 91 °F (1990)
Min Temperature 55 °F 47 °F 36 °F (1950)
Degree Days  
Heating Degree Days 4    
Growing Degree Days 10 (Base 50)    
Moisture  
Dew Point 50 °F    
Average Humidity 72    
Maximum Humidity 77    
Minimum Humidity 49    
Precipitation  
Precipitation 0.00 in - - ()
Sea Level Pressure  
Sea Level Pressure 30.05 in    
Wind  
Wind Speed 7 mph (West)    
Max Wind Speed 16 mph    
Max Gust Speed 18 mph    
Visibility 10 miles    
Events      
Averages and records for this station are not official NWS values.
T = Trace of Precipitation, MM = Missing Value Source: NWS Daily Summary

Daily Weather History Graph

Daily Weather History Graph

Search for Another Location

Airport:

Trip Planner

Search our weather history database for the weather conditions in past years. The results will help you decide how hot, cold, wet, or windy it might be!

Date:

Astronomy

May. 04, 2014 Rise Set
Actual Time 6:10 AM PDT 8:01 PM PDT
Civil Twilight 5:41 AM PDT 8:30 PM PDT
Nautical Twilight 5:07 AM PDT 9:04 PM PDT
Astronomical Twilight 4:30 AM PDT 9:41 PM PDT
Moon 10:39 AM PDT (5/4) 12:10 AM PDT (5/4)
Length of Visible Light 14h 48m
Length of Day
13h 51m
Waxing Crescent, 28% of the Moon is Illuminated
May 4
Waxing Crescent
May 6
First Quarter
May 14
Full
May 21
Last Quarter
May 28
New

Hourly Weather History & Observations

Time (PDT) Temp. Dew Point Humidity Pressure Visibility Wind Dir Wind Speed Gust Speed Precip Events Conditions
12:15 AM 57.2 °F 50.0 °F 77% 30.05 in 10.0 mi West 5.8 mph - N/A   Partly Cloudy
12:35 AM 57.2 °F 50.0 °F 77% 30.05 in 10.0 mi WNW 4.6 mph - N/A   Mostly Cloudy
12:55 AM 57.2 °F 50.0 °F 77% 30.05 in 10.0 mi WNW 5.8 mph - N/A   Mostly Cloudy
1:15 AM 57.2 °F 50.0 °F 77% 30.05 in 10.0 mi WNW 8.1 mph - N/A   Partly Cloudy
1:35 AM 57.2 °F 50.0 °F 77% 30.05 in 10.0 mi WNW 5.8 mph - N/A   Clear
1:55 AM 57.2 °F 50.0 °F 77% 30.05 in 10.0 mi WNW 4.6 mph - N/A   Clear
2:15 AM 57.2 °F 48.2 °F 72% 30.04 in 10.0 mi West 3.5 mph - N/A   Clear
2:55 AM 55.4 °F 48.2 °F 77% 30.04 in 10.0 mi Calm Calm - N/A   Mostly Cloudy
3:15 AM 55.4 °F 48.2 °F 77% 30.04 in 10.0 mi Calm Calm - N/A   Mostly Cloudy
3:35 AM 55.4 °F 48.2 °F 77% 30.04 in 10.0 mi Calm Calm - N/A   Overcast
3:55 AM 57.2 °F 50.0 °F 77% 30.04 in 10.0 mi West 8.1 mph - N/A   Mostly Cloudy
4:15 AM 57.2 °F 50.0 °F 77% 30.04 in 10.0 mi West 8.1 mph - N/A   Partly Cloudy
4:35 AM 57.2 °F 50.0 °F 77% 30.04 in 10.0 mi WNW 6.9 mph - N/A   Clear
4:55 AM 57.2 °F 50.0 °F 77% 30.04 in 10.0 mi WNW 5.8 mph - N/A   Clear
5:15 AM 57.2 °F 50.0 °F 77% 30.04 in 10.0 mi WNW 5.8 mph - N/A   Partly Cloudy
5:35 AM 57.2 °F 50.0 °F 77% 30.04 in 10.0 mi WNW 6.9 mph - N/A   Clear
5:55 AM 57.2 °F 50.0 °F 77% 30.04 in 10.0 mi WNW 8.1 mph - N/A   Clear
6:15 AM 57.2 °F 50.0 °F 77% 30.04 in 10.0 mi West 8.1 mph - N/A   Clear
6:35 AM 57.2 °F 50.0 °F 77% 30.05 in 10.0 mi West 6.9 mph - N/A   Clear
6:47 AM 57.2 °F 50.0 °F 77% 30.05 in 10.0 mi West 6.9 mph - N/A   Mostly Cloudy
6:55 AM 57.2 °F 50.0 °F 77% 30.05 in 10.0 mi WNW 5.8 mph - N/A   Clear
7:47 AM 57.2 °F 50.0 °F 77% 30.06 in 10.0 mi West 6.9 mph - N/A   Mostly Cloudy
8:48 AM 59.0 °F 50.0 °F 72% 30.06 in 10.0 mi WNW 8.1 mph - N/A   Mostly Cloudy
9:50 AM 62.6 °F 50.0 °F 63% 30.07 in 10.0 mi NW 10.4 mph - N/A   Mostly Cloudy
10:50 AM 64.4 °F 48.2 °F 56% 30.08 in 10.0 mi WNW 10.4 mph - N/A   Mostly Cloudy
11:47 AM 64.4 °F 48.2 °F 56% 30.08 in 10.0 mi NW 10.4 mph 17.3 mph N/A   Mostly Cloudy
12:47 PM 66.2 °F 46.4 °F 49% 30.07 in 10.0 mi WNW 11.5 mph - N/A   Mostly Cloudy
1:47 PM 66.2 °F 48.2 °F 52% 30.07 in 10.0 mi WSW 10.4 mph - N/A   Mostly Cloudy
2:48 PM 66.2 °F 48.2 °F 52% 30.06 in 10.0 mi WSW 11.5 mph - N/A   Mostly Cloudy
3:47 PM 66.2 °F 48.2 °F 52% 30.04 in 10.0 mi WSW 15.0 mph - N/A   Mostly Cloudy
4:47 PM 64.4 °F 50.0 °F 59% 30.03 in 10.0 mi WSW 13.8 mph 18.4 mph N/A   Mostly Cloudy
5:47 PM 64.4 °F 50.0 °F 59% 30.03 in 10.0 mi WSW 12.7 mph 18.4 mph N/A   Mostly Cloudy
6:52 PM 62.6 °F 48.2 °F 59% 30.03 in 10.0 mi West 10.4 mph - N/A   Mostly Cloudy
7:47 PM 59.0 °F 50.0 °F 72% 30.03 in 10.0 mi WNW 16.1 mph - N/A   Mostly Cloudy
8:47 PM 59.0 °F 50.0 °F 72% 30.05 in 10.0 mi West 9.2 mph - N/A   Clear
9:15 PM 57.2 °F 50.0 °F 77% 30.05 in 10.0 mi West 8.1 mph - N/A   Clear
9:35 PM 57.2 °F 50.0 °F 77% 30.06 in 10.0 mi West 8.1 mph - N/A   Clear
9:55 PM 57.2 °F 50.0 °F 77% 30.06 in 10.0 mi West 6.9 mph - N/A   Clear
10:15 PM 57.2 °F 50.0 °F 77% 30.06 in 10.0 mi West 10.4 mph - N/A   Clear
10:35 PM 57.2 °F 50.0 °F 77% 30.07 in 10.0 mi West 8.1 mph - N/A   Clear
10:55 PM 57.2 °F 50.0 °F 77% 30.07 in 10.0 mi West 8.1 mph - N/A   Clear
11:15 PM 57.2 °F 50.0 °F 77% 30.07 in 10.0 mi West 8.1 mph - N/A   Clear
11:35 PM 57.2 °F 50.0 °F 77% 30.07 in 10.0 mi West 9.2 mph - N/A   Clear
11:55 PM 57.2 °F 50.0 °F 77% 30.07 in 10.0 mi West 10.4 mph - N/A   Clear